FENGYUN 1C DEB

Satellite information

Favourite Embed

Satellite Type and Status

DEBRISIN ORBIT

Key statistics

Satellite FENGYUN 1C DEB at a glance.

Uptime

9668

Days in orbit

Revolutions

≈ 14.5

Per day

Orbit

SSO

Sun Synchronous Orbit

Inclination

97.4

Latest

Satellite identification and parameters

Extended collection of information and parameters for FENGYUN 1C DEB.

Object identification

Identified? True

Debris? True

Object name: FENGYUN 1C DEB

International designator: 1999-025TZ

Object number (NORAD): 30168

Object ID (CCSDS): 30168

Country: PEOPLES REPUBLIC OF CHINA (PRC)

Current information (Y/N): Y

RCS size: SMALL

Orbital parameters

Period: 99.196 minutes

Inclination: 97.3928 deg

SMA: 7098.326 km

Apoapsis: 791.072 km

Periapsis: 649.31 km

RAAN: 18.1219 deg

Eccentricy: 0.0099856

Argument of periapsis: 300.0084 deg

Mean anomaly: 59.1233 deg

Mean motion: 14.51673291 rev/day

Mean motion (dot): 0.00007885 rev/day2

B* drag term: 0.0018502 1/REarth

Two-line elements (TLE)

Creation date: Oct. 27, 2025, 2:46 p.m.

Reference frame: TEME

Reference center: EARTH

Epoch: Oct. 27, 2025, 5:27 a.m. UTC

TLE line 0: 0 FENGYUN 1C DEB

TLE line 1: 1 30168U 99025TZ 25300.22757938 .00007885 00000-0 18502-2 0 9992

TLE line 2: 2 30168 97.3928 18.1219 0099856 300.0084 59.1233 14.51673291976365

Live tracking on map

Real-time ground track for satellite FENGYUN 1C DEB.

In-orbit conjunctions

A list of the most updated potential collisions computed for object FENGYUN 1C DEB.

Target Orbit TCA Probability of collision Miss distance Type
ATLAS CENTAUR 2 R/B LEO 2025-09-13 03:57:14 0.0003015245 391.0 (m) ROCKET BODY
IRIDIUM 920 LEO 2024-12-31 23:24:43 0.0005348044 177.0 (m) PAYLOAD
CZ-6A DEB SSO 2024-11-16 11:53:34 0.0001266222 622.0 (m) DEBRIS
CZ-6A DEB LEO 2024-11-09 05:07:25 0.0001028075 189.0 (m) DEBRIS

Associated space launch

Chinese polar orbiting meteorological satellite

FENGYUN 1C DEB was lifted into orbit during the mission ‘Long March 4B | Feng Yun 1C’, on board a Long March 4B space rocket.

The launch took place on May 10, 1999, 1:33 a.m. from Launch Complex 7.

For more information about the launch, click the button.

Launch to space Long March 4B | Feng Yun 1C
Long March 4B | Feng Yun 1C

Agency: N/A

Status: Launch Successful

Launch date: May 10, 1999, 1:33 a.m. UTC

Rocket: Long March 4B

Launch pad: Launch Complex 7

Location: Taiyuan Satellite Launch Center, People's Republic of China

...

Latest news about this satellite

There are no fresh news available about this satellite. Check back as we update our databases every day.


Newsletter sign-up

Weekly statistics, charts and insights to help you stay on top of the space industry.